Regional Weather Roundup
Issued by NWS Grand Forks, ND

Home | Current Version | Previous Version | Graphics & Text | Print | Product List | Glossary On
Versions: 1 2 3 4 5 6 7 8 9 10 11 12 13 14 15 16 17 18 19 20 21 22 23 24 25 26 27 28 29 30 31 32 33 34 35 36 37 38 39 40 41 42 43 44 45 46 47 48 49 50
000
ASUS43 KFGF 301110
RWRFGF
PRAIRIE TO PINES  WEATHER ROUNDUP
NATIONAL WEATHER SERVICE EASTERN NORTH DAKOTA/GRAND FORKS ND
600 AM CDT MON MAY 30 2016

 **SATELLITE DATA USED TO AUGMENT SKY COVER AT AUTOMATED STATIONS**
 *****  WEATHER ACROSS EASTERN NORTH DAKOTA  *****

CITY           SKY/WX    TMP DP  RH WIND       PRES   REMARKS
GRAND FORKS    PTCLDY    50  45  83 S5        29.91R
GRAND FRKS AFB CLEAR     51  46  81 SW5       29.92R
GRAND FRKS NWS   N/A     52 N/A N/A SW1         N/A
DEVILS LAKE    PTCLDY    53  47  79 CALM      29.92S
FARGO          CLEAR     54  47  77 E6        29.93S
WAHPETON ARPT  SUNNY     54  45  71 SE7       29.97R
$$

 ***** WEATHER ACROSS CENTRAL AND WESTERN NORTH DAKOTA  *****

CITY           SKY/WX    TMP DP  RH WIND       PRES   REMARKS
BISMARCK       CLEAR     52  51  97 NE3       29.94R
MINOT          CLEAR     51  46  83 S3        29.89S
JAMESTOWN      CLEAR     51  48  89 S6        29.93S
MINOT AFB      CLEAR     48  44  86 CALM      29.88S
GARRISON         N/A     48  45  89 CALM      29.91R
WILLISTON      CLOUDY    46  42  86 NE5       29.90S
DICKINSON      CLEAR     46  43  89 S5        29.90S
HETTINGER      CLEAR     44  42  93 SE3       29.92F
$$

 *****  OTHER AIRPORT OBSERVATIONS IN OUR AREA  *****

CITY           SKY/WX    TMP DP  RH WIND       PRES   REMARKS
WALHALLA       FAIR      50  46  87 CALM      29.90S
GRAFTON AIRPOR FAIR      50  50 100 CALM      29.93R
VALLEY CITY AR FAIR      48  48 100 S7        29.96S
CANDO          NOT AVBL
CAVALIER APRT  FAIR      50  48  93 SW5       29.90S
GWINNER        FAIR      54  52  94 SW8       29.96R
ROLLA          FAIR      52  43  71 SW5       29.93R
 ***** THE ABOVE OBSERVATIONS ARE NON NWS ARE NOT QUALITY
       CONTROLLED AND MAY MIS-REPORT RAIN FOR SNOW...
$$

  *****  WEATHER ACROSS NORTHERN MINNESOTA  *****

CITY           SKY/WX    TMP DP  RH WIND       PRES   REMARKS
FLAG ISLAND    CLEAR     54  52  94 CALM      29.91S
WARROAD        PTCLDY    48  45  87 NE3       29.94R FOG
ROSEAU         CLEAR     48  45  87 S3        29.93R
HALLOCK        CLEAR     52  48  87 SE3       29.91R
THF RVR FALLS  CLEAR     54  45  71 S6        29.95R
BAUDETTE       CLEAR     45  44  97 CALM      29.93R
WASKISH        CLEAR     48  46  93 CALM      29.94R FOG
CROOKSTON      PTCLDY    50  48  93 S6        29.95R
STEPHEN NDAWN    N/A     54  48  82 SE3         N/A
GREENBUSH NDAW   N/A     50  48  93 CALM        N/A
$$
  *****  WEATHER ACROSS CENTRAL AND WEST MINNESOTA  *****

CITY           SKY/WX    TMP DP  RH WIND       PRES   REMARKS
FOSSTON        CLEAR     50  46  87 S6        29.97R
BEMIDJI        FOG       42  42  99 CALM      29.97R VSB<1/4
PARK RAPIDS    CLOUDY    52  47  83 CALM      29.98R
ELBOW LAKE     FAIR      56  48  75 E6        29.98S
WADENA         CLOUDY    54  48  82 CALM      29.99S
DETROIT LAKES  CLOUDY    59  52  77 CALM      29.99R
MOORHEAD       CLEAR     55  48  76 SE7       29.95S
FERGUS FALLS   CLEAR     55  50  82 SE6       29.95R
MORRIS MN      PTCLDY    52  48  87 CALM      29.97S
STAPLES        CLOUDY    52  50  93 S5        30.00R
$$
  *****  WEATHER ELSEWHERE ACROSS MINNESOTA  *****

CITY           SKY/WX    TMP DP  RH WIND       PRES   REMARKS
DULUTH         CLEAR     53  49  86 W7        29.97R
INTRNTL FALLS  CLEAR     45  45 100 CALM      29.92R
ELY            CLEAR     48  48 100 W3        29.94R
CLOQUET        CLEAR     54  48  82 W7        29.98R
WHEATON        CLEAR     59  48  67 S6        29.98S
BRAINERD       CLEAR     51  50  96 CALM      30.00R
HIBBING        CLEAR     39  39 100 CALM      29.96R FOG
ALEXANDRIA     CLOUDY    52  49  89 CALM      30.00R
SAINT CLOUD    CLEAR     50  49  96 CALM      29.99S FOG
MINNEAPOLIS    CLOUDY    61  57  87 CALM      29.99F
$$

  *****  WEATHER ACROSS SOUTH DAKOTA  *****

CITY           SKY/WX    TMP DP  RH WIND       PRES   REMARKS
SIOUX FALLS    MOCLDY    60  54  80 N7        30.00F
BROOKINGS      CLOUDY    60  53  77 S6        30.02S
WATERTOWN      CLOUDY    60  53  77 S9        30.00S
HURON          LGT RAIN  63  55  75 S6        29.93F
SISSETON         N/A     52  46  80 S5        29.96R
ABERDEEN       CLEAR     52  49  89 SE6       29.96S
MITCHELL       CLOUDY    61  57  87 N6        29.96F
PIERRE         CLOUDY    60  54  80 SE10      29.93S
MOBRIDGE       CLEAR     57  52  83 SE3       29.90S
RAPID CITY     CLOUDY    46  45  96 CALM      29.90F
$$

  *****  SOME WEATHER IN NEARBY STATES *****

CITY           SKY/WX    TMP DP  RH WIND       PRES   REMARKS
GLASGOW MT     CLOUDY    54  45  71 E5        29.90S
GREAT FALLS MT CLEAR     47  39  74 NW10      30.00R
CHEYENNE WY    CLEAR     43  37  79 W8        30.08F
SCOTTSBLUFF NE CLOUDY    51  47  86 E8        29.98F
OMAHA NE       PTCLDY    62  58  86 CALM      29.99R
DES MOINES IA  CLOUDY    65  59  81 S6        30.00R
DAVENPORT IA   CLOUDY    62  57  83 SW5       30.02S
CHICAGO IL     PTCLDY    64  58  80 W5        30.01R
EAU CLAIRE WI  CLEAR     56  55  97 CALM      30.01R
LA CROSSE WI   PTCLDY    58  57  97 S6        30.02R FOG
$$

  *****  SOME NATIONAL WEATHER *****

CITY           SKY/WX    TMP DP  RH WIND       PRES   REMARKS
LA GUARDIA NY  LGT RAIN  72  72 100 CALM      29.97F
RALEIGH NC     FOG       67  65  93 CALM      30.01R VSB 1/4
ATLANTA GA     PTCLDY    69  62  78 S3        30.03S
NEW ORLEANS LA PTCLDY    73  71  93 CALM      30.00R
OKLAHOMA CITY  CLOUDY    65  64  97 SE12      30.02F
ALBUQUERQUE NM PTCLDY    58  41  53 N8        30.11R
SALT LAKE CITY CLOUDY    58  47  66 S8        30.08F
LOS ANGELES CA PTCLDY    58  54  86 W5        29.99S
BOISE ID       CLEAR     54  36  50 W9        30.09R
SEATTLE WA     CLEAR     50  42  74 N9        30.28S
$$

*** WEATHER ACROSS MANITOBA...SASKATCHEWAN AND ONTARIO ***
                ***ONTARIO***

CITY           SKY/WX    TMP DP  RH WIND       PRES   REMARKS
GERALDTON      DRIZZLE   48  48 100 W8        29.78R FOG
THUNDER BAY    PTCLDY    55  52  88 SW7       29.85R
SIOUX LOOKOUT  CLOUDY    50  50 100 NW9       29.87R
TORONTO        MOSUNNY   68  59  73 W8        29.92R
BIG TROUT LK   CLOUDY    36  32  87 N9        29.95R
PICKLE LAKE    DRIZZLE   43  43 100 VRB7      29.85  FOG
DRYDEN         CLOUDY    52  50  93 W10G17    29.88S
KENORA         FOG       50  50 100 NW6       29.92S VSB 1/4
$$
                *** MANITOBA***

CITY           SKY/WX    TMP DP  RH WIND       PRES   REMARKS
BRANDON        PTCLDY    43  43 100 VRB2      29.89S
DAUPHIN        FOG       50  48  93 NW5       29.90S VSB 1/8
ISLAND LAKE    CLOUDY    46  45  93 NW3       29.99R
PILOT MOUND      N/A     46  43  87 S5          N/A
THE PAS        DRIZZLE   50  48  93 N5        29.94R FOG
THOMPSON       CLOUDY    43  41  93 NE9       30.04R
WINNIPEG       PTCLDY    50  48  93 E6        29.92R
LYNN LAKE      CLOUDY    41  41 100 E8        30.05R FOG
CHURCHILL      LGT SNOW  25  25 100 E12       30.25R FOG     WCI  14
GILLAM         CLOUDY    30  28  93 NE12      30.12R FOG     WCI  21
$$
                ***SASKATCHEWAN***

CITY           SKY/WX    TMP DP  RH WIND       PRES   REMARKS
ESTEVAN        NOT AVBL
KINDERSLEY     PTCLDY    50  46  87 NE14      29.85R
LLOYDMINSTER   CLOUDY    48  48 100 NE7       29.93S
PRINCE ALBERT  MOCLDY    41  39  93 NE6       29.97R
REGINA         PTCLDY    46  41  81 E6        29.87R
YORKTON        FOG       48  48 100 N8        29.91R VSB 1/8
N. BATTLEFORD  MOCLDY    50  50 100 E8        29.96S
LA RONGE       PTCLDY    39  37  93 N2        30.00R
SASKATOON      FOG       48  48 100 E15G22    29.93S VSB 3/4
SWIFT CURRENT  CLEAR     48  43  81 SW10      29.86R
$$
NOTE: THESE ARE AUTOMATED STATIONS WITH LIMITED QUALITY CONTROL
      "FAIR" INDICATES FEW OR NO CLOUDS BELOW 12,000 FEET WITH NO
      SIGNIFICANT WEATHER AND/OR OBSTRUCTIONS TO VISIBILITY.
      SKY/WX - SKY CONDITION AND SIGNIFICANT WEATHER.
      TMP - AIR TEMPERATURE.    DP   - DEWPOINT TEMPERATURE.
      RH  - RELATIVE HUMIDITY.  PRES - PRESSURE.
      HX  - HEAT INDEX.         WCI  - WIND CHILL INDEX.
$



USA.gov is the U.S. government's official web portal to all federal, state and local government web resources and services.